Home   Weather   Abilene   Past weeks

Flag for USA Past Weather in Abilene, Texas, USA — Yesterday and Last 2 Weeks

Now
92 °F

Sunny.


Feels Like: 88 °F
Forecast: 66 / 92 °F
Wind: 20 mph from West

Location: Abilene Regional Airport

Current Time: Apr 25, 2017 at 3:15:59 pm

Latest Report: Apr 25, 2017 at 1:52 pm


Visibility: 10 mi

Pressure: 29.40 "Hg (27.73 "Hg at 524m altitude)

Humidity: 18%

Dew Point: 42 °F

Location of AbileneLocation

Past Weather in Abilene — Graph

°F

Abilene Temperature Yesterday

Maximum temperature yesterday: 83 °F (at 3:52 pm)
Minimum temperature yesterday: 50 °F (at 1:52 am)
Average temperature yesterday: 67 °F

High & Low Weather Summary for the Past Weeks

 TemperatureHumidityPressure
High92 °F (Apr 25, 1:52 pm)100% (Apr 12, 12:52 am)30.23 "Hg (Apr 12, 12:52 am)
Low40 °F (Apr 23, 5:52 am)18% (Apr 25, 1:52 pm)29.40 "Hg (Apr 25, 1:52 pm)
Average67 °F70%29.95 "Hg
* Reported Apr 10 1:52 pm — Apr 25 1:52 pm, Abilene, Weather by CustomWeather, © 2017

Note: Actual official high and low records may vary slightly from our data, if they occured in-between our weather recording intervals... More about our weather records

Advertising

Abilene Weather History for the Previous 24 Hours

Scroll right to see more
 ConditionsComfort  
Time TempWeatherWind HumidityBarometerVisibility
1:52 pm
Tue, Apr 25
92 °FSunny.20 mph18%29.40 "Hg10 mi
12:52 pm90 °FSunny.17 mph26%29.42 "Hg10 mi
11:52 am87 °FSunny.16 mph27%29.45 "Hg10 mi
10:52 am77 °FSunny.13 mph48%29.47 "Hg10 mi
9:52 am73 °FSunny.20 mph55%29.47 "Hg10 mi
8:52 am69 °FSunny.16 mph63%29.47 "Hg10 mi
7:52 am66 °FSunny.22 mph65%29.46 "Hg10 mi
6:52 am65 °FClear.18 mph68%29.46 "Hg10 mi
5:52 am66 °FClear.21 mph63%29.44 "Hg10 mi
4:52 am67 °FClear.22 mph59%29.45 "Hg10 mi
3:52 am67 °FClear.22 mph59%29.45 "Hg10 mi
2:52 am67 °FClear.21 mph59%29.47 "Hg10 mi
1:52 am67 °FClear.17 mph59%29.50 "Hg10 mi
12:52 am69 °FClear.20 mph55%29.50 "Hg10 mi
11:52 pm
Mon, Apr 24
69 °FClear.17 mph55%29.52 "Hg10 mi
10:52 pm71 °FClear.20 mph51%29.54 "Hg10 mi
9:52 pm72 °FClear.18 mph49%29.54 "Hg10 mi
8:52 pm74 °FClear.18 mph46%29.53 "Hg10 mi
7:52 pm79 °FSunny.18 mph36%29.54 "Hg10 mi
6:52 pm81 °FSunny.17 mph35%29.57 "Hg10 mi
5:52 pm83 °FSunny.22 mph32%29.57 "Hg10 mi
4:52 pm83 °FSunny.20 mph31%29.61 "Hg10 mi
3:52 pm83 °FSunny.20 mph31%29.65 "Hg10 mi
Weather by CustomWeather, © 2017

See weather overviewHow to use our weather pages